x

9440910 - Toke Point, Wa (tokw1) Weather Station

8:30 - Mon 1st Jun 2015 All times are PDT. -7 hours from GMT.

  • Wind
    3mph, 7mph gusts
  • Luft Temp 55°f
  • Sea Pressure 1014.8mb
  • 9440910 - Toke Point, Wa
  • 9440910 - Toke Point, Wa

More Historic Weather Station data

Upgrade to MSW Pro to gain access to the past 30 days of data for over 8000 Wavebouys and Weather Stations around the globe.

Join Pro

Comparision Forecast

View Surf forecast
   
Mo 06/01 8:30 3 7 mph 1014.8mb 55f
8:24 2 11 mph 1014.8mb 55f
8:18 6 10 mph 1014.9mb 55f
8:12 5 11 mph 1014.8mb 55f
8:06 8 13 mph 1014.8mb 55f
8:00 3 13 mph 1014.8mb 55f
7:54 5 13 mph 1014.8mb 55f
7:48 6 11 mph 1014.8mb 55f
7:42 3 9 mph 1014.8mb 56f
7:36 5 11 mph 1014.8mb 56f
7:30 3 9 mph 1014.7mb 56f
7:24 3 10 mph 1014.7mb 56f
7:18 3 10 mph 1014.7mb 56f
7:12 5 10 mph 1014.6mb 56f
7:06 6 13 mph 1014.7mb 56f
7:00 3 15 mph 1014.6mb 56f
6:54 5 13 mph 1014.6mb 56f
6:48 6 14 mph 1014.7mb 56f
6:42 5 11 mph 1014.7mb 57f
6:36 3 8 mph 1014.7mb 56f
6:30 5 10 mph 1014.7mb 57f
6:24 3 11 mph 1014.7mb 57f
6:18 3 11 mph 1014.7mb 57f
6:12 3 10 mph 1014.7mb 57f
6:06 5 11 mph 1014.8mb 56f
6:00 5 9 mph 1014.8mb 57f
5:54 3 11 mph 1014.8mb 56f
5:48 2 6 mph 1014.7mb 57f
5:42 2 13 mph 1014.8mb 56f
5:36 5 13 mph 1014.7mb 56f
5:30 1 11 mph 1014.7mb 57f
5:24 6 11 mph 1014.7mb 57f
5:18 6 11 mph 1014.6mb 57f
5:12 5 14 mph 1014.6mb 57f
5:06 2 6 mph 1014.6mb 57f
5:00 2 8 mph 1014.5mb 57f
4:54 2 8 mph 1014.5mb 58f
4:48 2 9 mph 1014.5mb 58f
4:42 6 10 mph 1014.6mb 57f
4:36 2 6 mph 1014.6mb 58f
4:30 1 7 mph 1014.6mb 58f
4:24 2 6 mph 1014.6mb 58f
4:18 1 7 mph 1014.6mb 58f
4:12 2 5 mph 1014.6mb 58f
4:06 2 7 mph 1014.5mb 58f
4:00 6 9 mph 1014.6mb 58f
3:54 3 7 mph 1014.6mb 58f
3:48 3 8 mph 1014.6mb 58f
3:42 3 8 mph 1014.5mb 57f
3:36 5 10 mph 1014.5mb 57f
3:30 6 10 mph 1014.5mb 56f
3:24  -  3 mph 1014.5mb 57f
3:18 1 5 mph 1014.5mb 57f
3:12 1 3 mph 1014.6mb 58f
3:06  -  8 mph 1014.5mb 58f
3:00 3 8 mph 1014.5mb 59f
2:54 3 7 mph 1014.5mb 58f
2:48 3 8 mph 1014.5mb 58f
2:42 2 6 mph 1014.6mb 58f
2:36 5 8 mph 1014.6mb 57f
2:30 5 8 mph 1014.6mb 57f
2:24 2 8 mph 1014.6mb 57f
2:18 3 7 mph 1014.6mb 57f
2:12 1 7 mph 1014.5mb 57f
2:06 3 9 mph 1014.5mb 57f
2:00 2 6 mph 1014.5mb 57f
1:54 3 8 mph 1014.4mb 56f
1:48 2 6 mph 1014.5mb 56f
1:42 5 8 mph 1014.5mb 56f
1:36 6 8 mph 1014.6mb 56f
1:30 6 8 mph 1014.6mb 56f
1:24 5 7 mph 1014.6mb 55f
1:18 5 7 mph 1014.6mb 55f
1:12 5 8 mph 1014.7mb 55f
1:06 5 8 mph 1014.6mb 55f
1:00 3 6 mph 1014.6mb 55f
12:54 5 7 mph 1014.6mb 55f
12:48 5 8 mph 1014.6mb 55f
12:42 5 8 mph 1014.6mb 55f
12:36 5 7 mph 1014.6mb 55f
12:30 5 7 mph 1014.6mb 55f
12:24 3 6 mph 1014.7mb 55f
12:18 3 6 mph 1014.6mb 55f
12:12 3 6 mph 1014.6mb 55f
12:06 2 9 mph 1014.6mb 55f
12:00 7 10 mph 1014.6mb 55f
11:54 8 14 mph 1014.6mb 55f
11:48 11 14 mph 1014.5mb 55f
11:42 10 14 mph 1014.5mb 55f
11:36 9 14 mph 1014.4mb 55f
11:30 10 14 mph 1014.3mb 55f
11:24 10 14 mph 1014.2mb 55f
11:18 11 14 mph 1014.3mb 55f
11:12 10 14 mph 1014.2mb 55f
11:06 11 13 mph 1014.1mb 55f
11:00 11 13 mph 1014.1mb 55f
10:54 10 14 mph 1014.1mb 55f
10:48 10 13 mph 1014mb 55f
10:42 10 14 mph 1014mb 55f
10:36 11 14 mph 1014mb 55f
10:30 10 13 mph 1014mb 55f
10:24 13 15 mph 1013.9mb 55f
10:18 13 15 mph 1013.9mb 55f
10:12 11 14 mph 1013.9mb 55f
10:06 11 13 mph 1013.9mb 55f
10:00 9 11 mph 1013.9mb 55f
9:54 10 11 mph 1013.8mb 55f
9:48 11 13 mph 1013.8mb 55f
9:42 10 13 mph 1013.8mb 55f
9:36 10 14 mph 1013.8mb 55f
9:30 11 13 mph 1013.8mb 55f
9:24 10 13 mph 1013.8mb 55f
9:18 9 11 mph 1013.8mb 55f
9:12 9 11 mph 1013.7mb 55f
9:06 8 11 mph 1013.7mb 55f
9:00 9 10 mph 1013.6mb 55f
8:54 9 11 mph 1013.5mb 55f
8:48 10 13 mph 1013.5mb 55f
8:42 8 10 mph 1013.4mb 55f
8:36 9 10 mph 1013.3mb 55f
8:30 8 10 mph 1013.4mb 55f
8:24 9 10 mph 1013.4mb 55f
8:18 8 10 mph 1013.4mb 55f
8:12 7 9 mph 1013.4mb 55f
8:06 6 10 mph 1013.5mb 55f
8:00 8 10 mph 1013.4mb 55f
7:54 8 10 mph 1013.4mb 55f
7:48 9 11 mph 1013.4mb 55f
7:42 8 11 mph 1013.3mb 55f
7:36 7 11 mph 1013.2mb 55f
7:30 9 11 mph 1013.2mb 55f
7:24 8 11 mph 1013.1mb 55f
7:18 9 10 mph 1013.1mb 55f
7:12 9 11 mph 1013.1mb 55f
7:06 9 10 mph 1013mb 55f
7:00 7 10 mph 1013mb 55f
6:54 8 10 mph 1013mb 55f
6:48 9 10 mph 1012.9mb 55f
6:42 6 10 mph 1012.8mb 55f
6:36 6 10 mph 1012.8mb 55f
6:30 3 11 mph 1012.8mb 55f
6:24 3 11 mph 1012.8mb 55f
6:18 8 11 mph 1012.9mb 55f
6:12 6 11 mph 1012.9mb 55f
6:06 9 14 mph 1013mb 55f
6:00 8 13 mph 1013.1mb 55f
5:54 9 13 mph 1013.1mb 55f
5:48 8 14 mph 1013.1mb 55f
5:42 10 13 mph 1013.1mb 55f
5:36 7 13 mph 1013.1mb 55f
5:30 8 13 mph 1013.1mb 55f
5:24 8 14 mph 1013mb 55f
5:18 8 13 mph 1013mb 55f
5:12 10 14 mph 1013.1mb 55f
5:06 9 14 mph 1013mb 55f
5:00 9 13 mph 1013.1mb 55f
4:54 6 14 mph 1013.1mb 55f
4:48 8 13 mph 1013.1mb 55f
4:42 8 13 mph 1013.1mb 55f
4:36 7 14 mph 1013.1mb 55f
4:30 8 14 mph 1013.1mb 55f
4:24 9 16 mph 1013mb 55f
4:18 10 14 mph 1013mb 55f
4:12 8 13 mph 1013mb 54f
4:06 6 11 mph 1013.1mb 54f
4:00 8 14 mph 1013.1mb 54f
1:00 1 6 mph 1012.2mb -
12:54 1 6 mph 1012.1mb -
12:48 2 7 mph 1012mb -
12:42 2 7 mph 1011.9mb -
12:36 2 8 mph 1011.8mb -
12:30 3 9 mph 1011.8mb -
12:24  -  mph 1011.7mb -
12:18 1 6 mph 1011.6mb -
12:12 5 8 mph 1011.5mb 53f
12:06 2 8 mph 1011.3mb 53f
12:00 3 10 mph 1011.1mb 52f
So 05/31 11:54 7 9 mph 1010.9mb 52f
11:48  -  mph 1010.8mb -
11:42  -  mph 1010.8mb -
11:36  -  mph 1010.7mb -
11:30  -  mph - 52f
11:24  -  mph - 52f
11:18  -  mph - 52f
11:12  -  mph - 52f
11:06  -  mph - 52f
11:00 6 7 mph - -
10:54 6 7 mph - -
10:48 6
mph
1010.2mb 52f
10:42 6 7 mph 1010.2mb 52f
10:36 6
mph
1010.2mb 53f
10:30 5 7 mph 1010.3mb 53f
10:24 6 8 mph 1010.2mb 53f
10:18 7 8 mph 1010.2mb 53f
10:12 7 8 mph 1010mb 53f
10:06 7
mph
1010.1mb 53f
10:00 6 7 mph 1010.1mb 54f
9:54 6 7 mph 1010.2mb 54f
9:48 6 7 mph 1010.2mb 54f
9:42 6
mph
1010.1mb 54f
9:36 5 6 mph 1010.1mb 55f
9:30 5 6 mph 1009.9mb 55f
9:24 3 5 mph 1009.9mb 56f
9:18 3 5 mph 1010mb 56f
9:12 3 5 mph 1010mb 56f
9:06 3
mph
1010mb 56f
9:00  -  5 mph 1010mb 56f
8:54 3 6 mph 1009.8mb 56f
8:48 3 6 mph 1009.7mb 56f
8:42 5 7 mph 1009.7mb 56f
8:36 6 7 mph 1009.8mb 56f
8:30 6 8 mph 1009.7mb 56f
8:24 8 13 mph 1009.7mb 56f
8:18 10 13 mph 1009.7mb 57f
8:12 10 11 mph 1009.7mb 57f
8:06 8 10 mph 1009.6mb 57f
8:00 9 14 mph 1009.5mb 57f
7:54 11 16 mph 1009.5mb 57f
7:48 9 15 mph 1009.5mb 57f
7:42 13 18 mph 1009.4mb 57f
7:36 16 18 mph 1009.3mb 57f
7:30 14 17 mph 1009.4mb 57f
7:24 14 18 mph 1009.6mb 57f
7:18 10 16 mph 1009.8mb 57f
7:12 14 16 mph 1009.7mb 57f
7:06 14 17 mph 1009.5mb 58f
7:00 14 17 mph 1009.5mb 58f
6:54 15 18 mph 1009.5mb 59f
6:48 14 18 mph 1009.3mb 59f
6:42 15 17 mph 1009.4mb 60f
6:36 14 18 mph 1009.5mb 61f
6:30 13 15 mph 1009.5mb 62f
6:24 10 15 mph 1009.3mb 62f
6:18 13 16 mph 1009.1mb 62f
6:12 10 14 mph 1009mb 63f
6:06 14 15 mph 1009mb 62f
6:00 11 15 mph 1008.9mb 63f
5:54 14 16 mph 1009.1mb 62f
5:48 14 16 mph 1009.3mb 62f
5:42 14 16 mph 1009.2mb 63f
5:36 14 15 mph 1009.2mb 63f
5:30 10 14 mph 1009.2mb 64f
5:24 13 15 mph 1009.2mb 64f
5:18 13 15 mph 1009.1mb 64f
5:12 11 13 mph 1009.1mb 65f
5:06 7 11 mph 1009.4mb 65f
5:00 10 11 mph 1009.1mb 65f
4:54 11 15 mph 1009.1mb 64f
4:48 13 14 mph 1009.1mb 64f
4:42 11 15 mph 1009.2mb 65f
4:36 14 15 mph 1009mb 65f
4:00 9 13 mph 1009.4mb 68f
3:54 5 7 mph 1009.5mb 68f
3:48 1 5 mph 1009.4mb 69f
3:42 3 8 mph 1009.3mb 68f
3:36 6 8 mph 1009.3mb 68f
3:30 7 9 mph 1009.5mb 67f
3:24 3 6 mph 1009.6mb 69f
3:18 6 7 mph 1009.6mb 68f
3:12 6 7 mph 1009.7mb 67f
3:06 6 8 mph 1009.7mb 67f
3:00 7 8 mph 1009.8mb 66f
2:54 7
mph
1010mb 66f
2:48 7 8 mph 1010.1mb 66f
2:42 6 8 mph 1010.2mb 65f
2:36 7 9 mph 1010.2mb 65f
2:30 8 11 mph 1010.3mb 65f
2:24 11 13 mph 1010.4mb 64f
2:18 13 14 mph 1010.6mb 63f
2:12 11 14 mph 1010.7mb 64f
2:06 14 15 mph 1010.4mb 64f
2:00 9 13 mph 1010.3mb 64f
1:54 6 8 mph 1010.2mb 65f
1:48 3 7 mph 1010.2mb 65f
1:42  -  7 mph 1010.3mb 65f
1:36 1 5 mph 1010.4mb 65f
1:30 2 6 mph 1010.5mb 64f
1:24 3 6 mph 1010.6mb 64f
1:18 2 8 mph 1010.7mb 63f
1:12 3 7 mph 1010.8mb 63f
1:06 2 10 mph 1010.9mb 63f
1:00 5 7 mph 1010.9mb 63f
12:54 2 6 mph 1010.9mb 63f
12:48 2 6 mph 1011.1mb 63f
12:42 1 5 mph 1011.1mb 63f
12:36 2 6 mph 1011.2mb 62f
12:30 2 5 mph 1011.4mb 62f
12:24 1 5 mph 1011.5mb 62f
12:18 1 6 mph 1011.6mb 61f
12:12 2 7 mph 1011.6mb 61f
12:06 2 7 mph 1011.7mb 62f
12:00 1 6 mph 1011.7mb 61f
11:54 5 9 mph 1011.6mb 59f
11:48 2 10 mph 1011.8mb 59f
11:42 5 9 mph 1011.8mb 59f
11:36 2 8 mph 1011.9mb 59f
11:30 1 7 mph 1012mb 60f
11:24 5 6 mph 1011.8mb 58f
11:18 5 6 mph 1011.8mb 59f
11:12 1 6 mph 1012mb 60f
11:06 3 7 mph 1012mb 59f
11:00 6 9 mph 1012.1mb 58f
10:54  -  2 mph 1012.2mb 60f
10:48 2 7 mph 1012.1mb 58f
10:42 2 7 mph 1012.1mb 58f
10:36 5 8 mph 1012.2mb 58f
10:30 1 5 mph 1012.2mb 58f
10:24 3 5 mph 1012.3mb 57f
10:18 1 3 mph 1012.3mb 57f
10:12 2 5 mph 1012.2mb 57f
10:06 1 2 mph 1012.3mb 56f
10:00 2 3 mph 1012.3mb 56f
9:54  -  2 mph 1012.4mb 56f
9:48  -  2 mph 1012.5mb 56f
9:42  -  1 mph 1012.6mb 56f
9:36 1 3 mph 1012.6mb 56f
9:30 1 3 mph 1012.6mb 55f
9:24 2 3 mph 1012.6mb 54f
9:18  -  2 mph 1012.7mb 55f
9:12  -  1 mph 1012.7mb 55f
9:06  -  1 mph 1012.7mb 54f
9:00 1 2 mph 1012.8mb 54f
8:54 2 5 mph 1012.8mb 53f
8:48 3 5 mph 1012.8mb 53f
8:42 1 3 mph 1012.8mb 53f
8:36 1 3 mph 1012.6mb 53f
8:30 1 3 mph 1012.6mb 53f
8:24 2 5 mph 1012.7mb 53f
8:18 5 6 mph 1012.6mb 53f
8:12  -  5 mph 1012.7mb 53f
8:06 5 6 mph 1012.7mb 53f
8:00 5 6 mph 1012.7mb 53f
7:54 3 7 mph 1012.7mb 53f
7:48 3 7 mph 1012.6mb 53f
7:42 7 8 mph 1012.6mb 52f
7:36 5 7 mph 1012.6mb 53f
7:30 6 9 mph 1012.6mb 52f
7:24 6 8 mph 1012.6mb 52f
7:18 3 8 mph 1012.7mb 52f
7:12 3 6 mph 1012.7mb 52f
7:06 1 5 mph 1012.8mb 52f
7:00 5 8 mph 1012.7mb 52f
6:54 6 8 mph 1012.5mb 52f
6:48 5 9 mph 1012.6mb 52f
6:42 9 10 mph 1012.4mb 52f
6:36 8 10 mph 1012.6mb 52f
6:30 7 8 mph 1012.7mb 52f
6:24 6 9 mph 1012.8mb 52f
6:18 7 9 mph 1012.5mb 52f
6:12 3 6 mph 1013.2mb 52f
6:06 3 6 mph 1013.1mb 52f
6:00 5 6 mph 1013.2mb 52f
5:54 5 6 mph 1013.2mb 52f
5:48 3 6 mph 1013.3mb 52f
5:42 2 5 mph 1013.5mb 52f
5:36 2 6 mph 1013.5mb 52f
5:30 5 7 mph 1013.4mb 52f
5:24 7 10 mph 1013.1mb 52f
5:18 7 9 mph 1013mb 52f
5:12 7 9 mph 1012.9mb 52f
5:06 7 9 mph 1012.9mb 52f
5:00 3 7 mph 1013.1mb 53f
4:54 5 8 mph 1013.2mb 52f
4:48 3 8 mph 1013.1mb 53f
4:42 7 9 mph 1013.2mb 52f
4:36 3 8 mph 1013.2mb 53f
4:30 3 6 mph 1013.3mb 52f
4:24 6
mph
1013.4mb 52f
4:18 3 6 mph 1013.6mb 52f
4:12 3 5 mph 1013.7mb 53f
4:06 3 8 mph 1013.7mb 53f
4:00 5 7 mph 1013.5mb 53f
3:54 5 9 mph 1013.5mb 52f
3:48 7 9 mph 1013.3mb 52f
3:42 7 8 mph 1013.4mb 52f
3:36 6 7 mph 1013.7mb 53f
3:30 5 6 mph 1013.9mb 53f
3:24 5 6 mph 1014mb 53f
3:18 5 7 mph 1014mb 53f
3:12 5 6 mph 1013.9mb 53f
3:06 2 3 mph 1014.2mb 52f
3:00 1 2 mph 1014.5mb 52f
2:54 1 5 mph 1014.4mb 52f
2:48 3 7 mph 1014.4mb 52f
2:42 5 6 mph 1014.4mb 53f
2:36 3 6 mph 1014.4mb 53f
2:30 5 7 mph 1014.4mb 53f
2:24 6 7 mph 1014.3mb 52f
2:18 5 6 mph 1014.4mb 52f
2:12 3 5 mph 1014.7mb 52f
2:06 3 6 mph 1014.8mb 53f
2:00 5 6 mph 1014.7mb 53f
1:54 5 6 mph 1014.7mb 53f
1:48 5 6 mph 1014.6mb 53f
1:42 6 8 mph 1014.7mb 53f
1:36 5 7 mph 1014.7mb 53f
1:30 5 6 mph 1014.8mb 53f
1:24 6 7 mph 1014.9mb 53f
1:18 5 6 mph 1014.9mb 53f
1:12 6 7 mph 1014.9mb 52f
1:06 6 8 mph 1014.9mb 53f
1:00 6 8 mph 1014.9mb 53f
12:54 6 9 mph 1014.9mb 53f
12:48 5 7 mph 1015mb 53f
12:42 6 8 mph 1015mb 53f
12:36 6 7 mph 1015mb 53f
12:30 5 6 mph 1015mb 53f
12:24 3 6 mph 1015.1mb 53f
12:18 2 3 mph 1015.2mb 53f
12:12 2 3 mph 1015.4mb 53f
12:06 2 3 mph 1015.5mb 53f
12:00 2 3 mph 1015.5mb 53f
Sa 05/30 11:54 2 5 mph 1015.5mb 53f
11:48 3 5 mph 1015.3mb 52f
11:42 3 6 mph 1015.2mb 53f
11:36 6 7 mph 1015.1mb 53f
11:30 6 7 mph 1015mb 53f
11:24 6 7 mph 1014.9mb 53f
11:18 6 7 mph 1014.9mb 53f
11:12 6 7 mph 1014.9mb 53f
11:06 6 7 mph 1014.8mb 53f
11:00 6 8 mph 1014.9mb 53f
10:54 6 10 mph 1014.9mb 53f
10:48 6 9 mph 1014.9mb 53f
10:42 6 8 mph 1014.9mb 53f
10:36 7 8 mph 1014.9mb 53f
10:30 7 8 mph 1015mb 53f
10:24 8 9 mph 1015mb 53f
10:18 7 8 mph 1015.1mb 53f
10:12 7 9 mph 1015.1mb 53f
10:06 7 9 mph 1015.1mb 53f
10:00 8 10 mph 1015.2mb 53f
9:54 7 8 mph 1015.2mb 53f
9:48 5 7 mph 1015.3mb 53f
9:42 5 7 mph 1015.3mb 53f
9:36 7 8 mph 1015.2mb 53f
9:30 6 7 mph 1015.2mb 53f
9:24 6 8 mph 1015.1mb 53f
9:18 6 9 mph 1015mb 53f
9:12 7 9 mph 1014.9mb 53f
9:06 8 10 mph 1014.8mb 53f
9:00 7 9 mph 1014.8mb 53f
8:54 8 11 mph 1014.8mb 53f
8:48 7 10 mph 1014.8mb 53f
8:42 8 10 mph 1014.9mb 53f
8:36 8 10 mph 1014.9mb 53f
8:30 9 10 mph 1014.9mb 53f
8:24 9 10 mph 1015mb 54f
8:18 8 13 mph 1014.9mb 54f
8:12 9 11 mph 1014.8mb 54f
8:06 9 16 mph 1014.8mb 55f
8:00 11 14 mph 1014.6mb 55f
7:54 10 15 mph 1014.6mb 55f
7:48 10 14 mph 1014.7mb 55f
7:42 11 15 mph 1014.9mb 55f
7:36 11 15 mph 1015mb 55f
7:30 13 16 mph 1014.9mb 55f
7:24 13 16 mph 1014.9mb 55f
7:18 14 16 mph 1015mb 55f
7:12 11 16 mph 1015.1mb 55f
7:06 14 16 mph 1015.1mb 55f
7:00 13 16 mph 1015.1mb 56f
6:54 14 16 mph 1015.1mb 55f
6:48 11 15 mph 1015.1mb 56f
6:42 13 14 mph 1015.1mb 56f
6:36 10 14 mph 1015.1mb 56f
6:30 14 16 mph 1015.1mb 55f
6:24 14 17 mph 1015.1mb 56f
6:18 14 16 mph 1015.1mb 56f
6:12 14 16 mph 1015.1mb 56f
6:06 14 17 mph 1015.1mb 56f
6:00 15 17 mph 1015.1mb 56f
5:54 15 17 mph 1015.2mb 56f
5:48 15 17 mph 1015.2mb 56f
5:42 14 17 mph 1015.4mb 56f
5:36 14 16 mph 1015.4mb 56f
5:30 14 16 mph 1015.5mb 56f
5:24 11 15 mph 1015.5mb 56f
5:18 14 17 mph 1015.6mb 56f
5:12 14 16 mph 1015.7mb 56f
5:06 13 16 mph 1015.7mb 56f
5:00 14 18 mph 1015.7mb 56f
4:54 13 16 mph 1015.8mb 56f
4:48 15 18 mph 1015.8mb 56f
4:42 15 18 mph 1015.9mb 56f
4:36 14 17 mph 1015.9mb 56f
4:30 13 16 mph 1015.9mb 57f
4:24 13 16 mph 1015.9mb 57f
4:18 15 18 mph 1015.8mb 57f
4:12 14 16 mph 1015.8mb 57f
4:06 15 21 mph 1015.8mb 57f
4:00 15 20 mph 1015.8mb 57f
3:54 14 20 mph 1015.9mb 57f
3:48 17 21 mph 1015.9mb 56f
3:42 14 20 mph 1016mb 57f
3:36 15 18 mph 1016mb 57f
3:30 14 18 mph 1016mb 57f
3:24 14 18 mph 1016.1mb 57f
3:18 13 18 mph 1016.1mb 57f
3:12 14 18 mph 1016.1mb 57f
3:06 13 15 mph 1016mb 57f
3:00 11 15 mph 1016.1mb 57f
2:54 13 16 mph 1016.1mb 57f
2:48 11 15 mph 1016.1mb 57f
2:42 14 18 mph 1016.1mb 56f
2:36 14 18 mph 1016.2mb 57f
2:30 10 14 mph 1016.2mb 57f
2:24 14 17 mph 1016.2mb 56f
2:18 13 16 mph 1016.1mb 56f
2:12 11 17 mph 1016.3mb 56f
2:06 11 20 mph 1016.5mb 56f
2:00 11 17 mph 1016.5mb 56f
1:54 13 17 mph 1016.5mb 56f
1:48 13 17 mph 1016.6mb 56f
1:42 13 17 mph 1016.6mb 56f
1:36 14 21 mph 1016.7mb 55f
1:30 13 18 mph 1016.8mb 55f
1:24 14 20 mph 1016.8mb 56f
1:18 14 17 mph 1016.9mb 56f
1:12 13 18 mph 1016.9mb 55f
1:06 13 18 mph 1017mb 55f
1:00 10 18 mph 1017mb 55f
12:54 9 18 mph 1016.9mb 56f
12:48 14 17 mph 1016.9mb 55f
12:42 14 18 mph 1016.8mb 55f
12:36 10 16 mph 1016.8mb 55f
12:30 11 16 mph 1016.8mb 55f
12:24 9 15 mph 1016.7mb 56f
12:18 5 11 mph 1016.6mb 56f
12:12 3 10 mph 1016.6mb 56f
12:06 7 11 mph 1016.6mb 55f
12:00 6 8 mph 1016.6mb 55f
11:54 6 14 mph 1016.6mb 55f
11:48 7 9 mph 1016.6mb 55f
11:42 6 9 mph 1016.7mb 55f
11:36 6 10 mph 1016.6mb 55f
11:30 6 9 mph 1016.6mb 55f
11:24 10 13 mph 1016.6mb 54f
11:18 8 10 mph 1016.6mb 55f
11:12 5 9 mph 1016.6mb 55f
11:06 6 9 mph 1016.5mb 54f
11:00 6 7 mph 1016.5mb 54f
10:54 5 9 mph 1016.5mb 54f
10:48 9 10 mph 1016.6mb 54f
10:42 6 9 mph 1016.5mb 54f
10:36 6 8 mph 1016.5mb 54f
10:30 3 8 mph 1016.4mb 54f
10:24 8 9 mph 1016.4mb 53f
10:18 5 9 mph 1016.6mb 54f
10:12 8 9 mph 1016.6mb 53f
10:06 8 9 mph 1016.6mb 54f
10:00 7 10 mph 1016.5mb 53f
9:54 6 8 mph 1016.5mb 53f
9:48 7 10 mph 1016.5mb 53f
9:42 8 11 mph 1016.5mb 53f
9:36 5 7 mph 1016.5mb 53f
9:30 5 9 mph 1016.5mb 53f
9:24 7 10 mph 1016.4mb 53f
9:18 8 10 mph 1016.4mb 53f
9:12 8 11 mph 1016.4mb 53f
9:06 7 10 mph 1016.4mb 53f
9:00 8 13 mph 1016.5mb 53f
8:54 6 11 mph 1016.4mb 53f
8:48 7 9 mph 1016.4mb 53f
8:42 8 10 mph 1016.4mb 53f
8:36 8 11 mph 1016.4mb 53f
8:30 8 11 mph 1016.3mb 53f
8:24 6 9 mph 1016.3mb 53f
8:18 7 9 mph 1016.3mb 53f
8:12 8 10 mph 1016.3mb 53f
8:06 6 8 mph 1016.3mb 53f
8:00 6 8 mph 1016.3mb 53f
7:54 6 8 mph 1016.2mb 53f
7:48 6 9 mph 1016.3mb 53f
7:42 6 8 mph 1016.3mb 53f
7:36 5 9 mph 1016.3mb 53f
7:30 3 6 mph 1016.3mb 53f
7:24 5 6 mph 1016.2mb 53f
7:18 6 7 mph 1016.1mb 53f
7:12 6 10 mph 1016.1mb 53f
7:06 9 11 mph 1016.1mb 53f
7:00 8 10 mph 1016mb 53f
6:54 10 13 mph 1016.1mb 53f
6:48 8 10 mph 1016mb 53f
6:42 6 8 mph 1015.9mb 53f
6:36 5 8 mph 1015.9mb 53f
6:30 7 9 mph 1015.8mb 53f
6:24 7 9 mph 1015.8mb 53f
6:18 5 6 mph 1015.8mb 53f
6:12 2 5 mph 1015.8mb 53f
6:06 5 8 mph 1015.7mb 53f
6:00 6 7 mph 1015.7mb 52f
5:54 6 7 mph 1015.7mb 53f
5:48 6 7 mph 1015.7mb 53f
5:42 2 6 mph 1015.8mb 52f
5:36 2 5 mph 1015.9mb 52f
5:30 3 5 mph 1015.9mb 52f
5:24 3 6 mph 1015.9mb 53f
5:18 3 6 mph 1015.9mb 52f
5:12 6 7 mph 1015.9mb 52f
5:06 5 9 mph 1015.9mb 52f
5:00 7 10 mph 1015.9mb 52f
4:54 5 7 mph 1015.8mb 52f
4:48 7 9 mph 1015.8mb 52f
4:42 5 7 mph 1015.8mb 52f
4:36 6 10 mph 1015.9mb 52f
4:30 7 14 mph 1015.8mb 52f
4:24 8 11 mph 1015.8mb 52f
4:18 7 8 mph 1015.7mb 53f
4:12 6 7 mph 1015.6mb 53f
4:06 6 8 mph 1015.7mb 53f
4:00 7 9 mph 1015.7mb 53f
3:54 7 8 mph 1015.8mb 53f
3:48 7 8 mph 1015.9mb 53f
3:42 5 6 mph 1016mb 53f
3:36 5 6 mph 1016mb 53f
3:30 5 6 mph 1016.1mb 53f
3:24 6 7 mph 1016mb 53f
3:18 6 7 mph 1016mb 53f
3:12 6 7 mph 1016mb 53f
3:06 7 9 mph 1016mb 53f
3:00 7 9 mph 1016.1mb 53f
2:54 7 10 mph 1016.1mb 53f
2:48 8 14 mph 1016.1mb 53f
2:42 9 11 mph 1016.1mb 53f
2:36 8 11 mph 1016.1mb 53f
2:30 11 13 mph 1016.2mb 53f
2:24 10 13 mph 1016.2mb 53f
2:18 10 13 mph - 53f
2:12 8 10 mph - 53f
2:06 8 10 mph - 53f
2:00 7 9 mph 1016.2mb 53f
1:54 7 9 mph 1016.2mb 53f
1:48 6 8 mph 1016.3mb 53f
1:42 7 9 mph 1016.2mb 53f
1:36 9 13 mph 1016.2mb 53f
1:30 6 8 mph 1016.2mb 53f
1:24 6 7 mph 1016.2mb 53f
1:18 7 8 mph 1016.3mb 53f
1:12 8 10 mph 1016.3mb 53f
1:06 8 11 mph 1016.3mb 53f
1:00 6 11 mph 1016.4mb 53f
12:54 6 7 mph 1016.4mb 53f
12:48 5 7 mph 1016.4mb 53f
12:42 5 7 mph 1016.4mb 53f
12:36 6 8 mph 1016.3mb 53f
12:30 6 8 mph 1016.3mb 53f
12:24 6 8 mph 1016.4mb 53f
12:18 7 9 mph 1016.3mb 53f
12:12 9 10 mph 1016.3mb 53f
12:06 6 7 mph 1016.4mb 53f
12:00 6 8 mph 1016.5mb 53f
Fr 05/29 11:54 6 8 mph 1016.4mb 53f
11:48 7 10 mph - 53f
11:42 9 10 mph - 53f
11:36 8 11 mph - 53f
11:30 6
mph
1016.6mb 53f
11:24 6 10 mph 1016.6mb 53f
11:18 8 10 mph - 53f
11:12 9 15 mph - 53f
11:06 7 10 mph - 53f
11:00 7 9 mph 1016.7mb 53f
10:54 8 9 mph 1016.8mb 53f
10:48 6 8 mph 1016.7mb 53f
10:42 6 7 mph 1016.7mb 53f
10:36 6 8 mph 1016.6mb 53f
10:30 7 8 mph 1016.7mb 53f
10:24 8 10 mph 1016.7mb 53f
10:18 8 13 mph 1016.7mb 53f
10:12 11 14 mph 1016.5mb 53f
10:06 7 10 mph 1016.4mb 53f
10:00 3 7 mph 1016.2mb 53f
9:54 7 10 mph 1016.2mb 53f
9:48 7 10 mph 1016.2mb 53f
9:42 6 9 mph 1016.1mb 53f
9:36 8 10 mph 1016mb 53f
9:30 8 10 mph 1016mb 53f
9:24 8 13 mph 1016mb 53f
9:18 10 15 mph 1016mb 53f
9:12 11 15 mph 1016mb 53f
9:06 9 11 mph 1015.9mb 53f
9:00 7 8 mph 1015.8mb 53f
8:54 8 11 mph 1015.8mb 53f
8:48 9 13 mph 1015.8mb 53f
8:42 10 16 mph 1015.7mb 53f
8:36 14 16 mph 1015.7mb 53f
8:30 10 15 mph 1015.8mb 53f
8:24 11 16 mph 1015.8mb 53f
8:18 8 10 mph 1015.8mb 53f
8:12 9 13 mph 1015.8mb 54f
8:06 8 11 mph 1015.9mb 54f
8:00 9 15 mph 1015.9mb 54f
7:54 11 14 mph 1016mb 53f
7:48 8 11 mph 1016mb 54f
7:42 8 11 mph 1016.1mb 53f
7:36 10 15 mph 1016.2mb 53f
7:30 14 16 mph 1016.2mb 53f
7:24 14 15 mph 1016.2mb 54f
7:18 9 15 mph 1016.2mb 54f
7:12 10 15 mph 1016.1mb 54f
7:06 13 16 mph 1016.1mb 54f
7:00 11 14 mph 1016.2mb 54f
6:54 9 11 mph 1016.1mb 54f
6:48 11 15 mph 1016.1mb 54f
6:42 9 11 mph 1016.1mb 55f
6:36 8 15 mph 1016mb 54f
6:30 11 14 mph 1016.1mb -
6:24 7 10 mph 1016.2mb -
6:18 8 17 mph 1016.3mb 54f
6:12 14 16 mph 1016.3mb 55f
6:06 11 15 mph 1016.4mb 55f
6:00 13 17 mph 1016.4mb 55f
5:54 11 14 mph 1016.4mb 55f
5:48 15 17 mph 1016.4mb 55f
5:42 9 11 mph 1016.6mb 55f
5:36 9 15 mph 1016.6mb 55f
5:30 13 17 mph 1016.6mb 55f
5:24 14 18 mph 1016.7mb 55f
5:18 13 15 mph 1016.7mb 55f
5:12 13 18 mph 1016.7mb 55f
5:06 17 20 mph 1016.7mb 55f
5:00 13 15 mph 1016.8mb 55f
4:54 11 18 mph 1016.8mb 56f
4:48 14 17 mph 1016.8mb 55f
4:42 14 17 mph 1016.8mb 55f
4:36 13 17 mph 1016.9mb 55f
4:30 10 15 mph 1016.9mb 56f
4:24 14 17 mph 1016.9mb 55f
4:18 10 16 mph 1016.8mb 56f
4:12 13 17 mph 1016.9mb 56f
4:06 14 17 mph 1016.9mb 55f
4:00 14 17 mph 1017mb 55f
3:54 13 16 mph 1017mb 56f
3:42 13 16 mph 1017mb 55f
3:36 11 16 mph 1017mb 55f
3:30 8 14 mph 1017mb 56f
3:24 10 14 mph 1017mb 55f
3:18 9 14 mph 1017.1mb 55f
3:12 9 14 mph 1017.1mb 55f
3:06 9 14 mph 1017.2mb 55f
3:00 11 14 mph 1017.2mb 55f
2:54 8 15 mph 1017.2mb 56f
2:48 10 14 mph 1017.2mb 55f
2:42 7 14 mph 1017.2mb 55f
2:36 3 14 mph 1017.2mb 55f
2:30  -  mph 1017.2mb 55f
2:24 7 13 mph 1017.2mb 55f
2:18 8 13 mph 1017.2mb 55f
2:12 10 14 mph 1017.2mb 55f
2:06 7 11 mph 1017.2mb 55f
2:00 8 11 mph 1017.3mb 55f
1:54 5 11 mph 1017.3mb 55f
1:48 9 11 mph 1017.4mb 55f
1:30  -  mph 1017.5mb -
1:24  -  mph 1017.6mb -
1:06  -  mph 1017.6mb -
1:00  -  mph 1017.6mb -
12:54  -  mph 1017.6mb -
12:48  -  mph 1017.5mb -
12:30 1 6 mph 1017.6mb 55f
12:24 2 9 mph 1017.6mb 55f
12:18 6 9 mph 1017.6mb 54f
12:12 8 10 mph 1017.7mb 53f
12:06 8 9 mph 1017.7mb 54f
12:00 8 9 mph 1017.8mb 54f
11:54 3 6 mph 1017.9mb 55f
11:48 5 9 mph 1017.9mb 54f
11:42 7 9 mph 1017.9mb 53f
11:36 6 9 mph 1017.9mb 53f
11:30 7 11 mph 1018mb 53f
11:24 8 10 mph 1018mb 52f
11:18 7 9 mph 1018mb 53f
11:12 6 8 mph 1018mb 53f
11:06 7 10 mph 1018mb 52f
11:00 2 7 mph 1018mb 53f
10:54 6 7 mph 1018mb 53f
10:48 6 8 mph 1018mb 53f
10:42 7 9 mph 1017.9mb 52f
10:36 7 10 mph 1017.9mb 53f
10:30 6 9 mph 1017.9mb 52f
10:24 7 11 mph 1017.9mb 52f
10:18 2 7 mph 1017.9mb 53f
10:12 5 9 mph 1017.9mb 52f
10:06 7 9 mph 1017.8mb 52f
10:00 7 9 mph 1017.8mb 52f
9:54 6 8 mph 1017.8mb 52f
9:48 6 8 mph 1017.8mb 52f
9:42 7 9 mph 1017.8mb 52f
9:36 3 5 mph 1017.8mb 52f
9:30 1 5 mph 1017.8mb 53f
9:24 5 6 mph 1017.8mb 52f
9:18 2 5 mph 1017.7mb 52f
9:12 5 7 mph 1017.7mb 52f
9:06 1 5 mph 1017.7mb 52f
9:00 3 6 mph 1017.6mb 52f
8:54  -  5 mph 1017.6mb 52f
8:48 5 8 mph 1017.6mb 52f
8:42 5 8 mph 1017.6mb 52f
8:36 5 7 mph 1017.6mb 52f
8:30 3 6 mph 1017.5mb 52f
8:24 5 6 mph 1017.5mb 52f
8:18 5 6 mph 1017.5mb 52f
8:12 3 7 mph 1017.4mb 52f
8:06 6 7 mph 1017.4mb 52f
8:00 5 6 mph 1017.4mb 52f
7:54 5 6 mph 1017.4mb 52f
7:48 2 5 mph 1017.4mb 52f
7:42 1 3 mph 1017.4mb 52f
7:36  -  3 mph 1017.4mb 52f
7:30 1
mph
1017.4mb 52f
7:24  -  2 mph 1017.5mb 51f
7:18 1 6 mph 1017.5mb 51f
7:12 3 5 mph 1017.5mb 52f
7:06 1 6 mph 1017.5mb 51f
7:00  -  2 mph 1017.5mb 52f
6:54 1 3 mph 1017.5mb 52f
6:48  -  2 mph 1017.4mb 51f
6:42 1 7 mph 1017.4mb 51f
6:36 3 6 mph 1017.4mb 52f
6:30 2 6 mph 1017.4mb 52f
6:24 5 6 mph 1017.4mb 52f
6:18 6 7 mph 1017.4mb 52f
6:12 6 7 mph 1017.4mb 52f
6:06  -  1 mph 1017.4mb 52f
6:00 1 3 mph 1017.4mb 52f
5:54 1 3 mph 1017.4mb 52f
5:48  -  3 mph 1017.4mb 52f
5:42 2 5 mph 1017.4mb 52f
5:12 5 6 mph 1017.3mb 52f
5:06 2 5 mph 1017.3mb 52f
5:00 5 6 mph 1017.3mb 52f
4:54 5 6 mph 1017.3mb 52f
4:48 3 5 mph 1017.3mb 52f
4:42 3 5 mph 1017.4mb 52f
4:36 3 5 mph 1017.4mb 52f
4:30 3
mph
1017.3mb 51f
4:24 2 3 mph 1017.4mb 51f
4:18 3
mph
1017.4mb 51f